Temperature
20 20 19 19 19 18 18 18 18 18 18 18 18 18 18 18 18 17 17 17 17 17 17 17 17 16 16 16 16 16 16 16 17 17 17 18 18 18 17 17 17 17 17
20 20 19 19 19 18 18 18 18 18 18 18 18 18 18 18 17 17 17 17 17 17 17 17 16 16 16 16 16 16 16 16 16 16 17 17 18 18 18 17 17 17 17
21 20 19 19 19 18 18 18 18 18 18 18 18 18 18 17 17 17 17 17 16 16 16 16 16 16 16 16 16 15 16 16 16 16 16 16 17 17 17 17 17 17 17
21 20 20 19 19 18 18 18 18 18 18 18 18 18 18 18 17 17 17 17 16 16 16 16 16 16 16 16 15 15 15 15 16 16 16 16 16 16 16 17 17 16 16
22 21 20 19 19 18 18 18 18 18 18 18 18 18 18 18 18 17 17 16 16 16 16 16 16 15 15 15 15 15 15 15 15 15 15 16 16 16 16 16 16 16 16
22 21 20 20 19 19 18 18 18 18 18 18 18 18 18 18 17 17 17 17 16 16 16 16 15 15 15 15 15 15 15 15 15 15 15 15 15 15 16 16 16 16 16
22 21 21 20 19 19 18 18 18 18 18 18 18 18 18 18 17 17 17 17 17 16 16 16 15 15 15 15 15 15 14 14 14 15 15 15 15 15 15 15 15 16 16
23 22 21 20 19 19 19 18 18 18 18 18 17 17 17 17 17 17 17 17 17 17 16 16 15 15 15 15 15 14 14 14 14 14 14 14 14 14 14 14 15 15 15
23 22 21 20 20 19 19 18 18 18 18 18 17 17 17 17 17 17 17 17 17 17 16 16 15 15 15 15 15 14 14 14 14 14 14 14 14 14 14 14 14 14 14
24 23 22 21 20 20 19 19 18 18 18 18 18 17 17 17 17 17 17 17 16 16 16 16 15 15 15 15 15 14 14 14 14 14 14 14 14 14 14 14 14 14 14
24 23 22 22 21 20 19 19 18 18 18 18 18 17 17 17 17 17 17 17 16 16 16 16 15 15 15 15 15 15 14 14 14 14 14 14 14 14 14 13 13 13 13
25 24 23 22 21 21 20 19 19 18 18 18 18 18 17 17 17 17 17 17 16 16 16 16 16 15 15 15 15 15 14 14 14 14 14 14 14 14 14 13 13 13 13
25 24 24 23 22 21 21 20 19 19 18 18 18 18 17 17 17 17 17 17 17 16 16 16 16 16 15 15 15 15 14 14 14 14 14 14 14 14 13 13 13 13 13
25 25 24 23 22 22 21 21 20 19 19 18 18 18 18 18 17 17 17 16 16 16 16 16 16 16 15 15 15 15 15 14 14 14 14 14 14 14 13 13 13 13 13
25 25 24 23 23 22 22 21 20 20 20 19 19 18 18 18 17 17 17 17 16 16 16 16 16 16 16 15 15 15 15 15 15 14 14 14 14 14 14 13 13 13 13
25 25 24 23 23 22 22 21 21 20 20 20 19 19 18 18 18 17 17 17 17 16 16 16 16 16 16 16 15 15 15 15 15 14 14 14 14 14 14 14 14 13 13
24 24 24 23 23 22 22 21 21 21 20 20 19 19 18 18 18 17 17 17 17 17 16 16 16 16 16 16 16 15 15 15 15 15 15 14 14 14 14 14 13 13 13
23 23 23 23 22 22 22 21 21 20 20 19 19 19 18 18 17 17 17 17 17 16 16 16 16 16 16 16 16 15 15 15 15 15 15 14 14 14 14 13 13 13 13
22 22 22 22 22 22 21 21 21 20 20 19 19 18 18 18 17 17 17 17 16 16 16 16 16 16 16 15 15 15 15 15 15 14 14 14 14 14 14 13 13 13 13
21 21 21 21 21 21 21 21 20 20 19 19 18 18 18 17 17 17 17 16 16 16 16 15 15 15 15 15 15 15 14 14 14 14 14 14 14 14 14 13 13 13 13
20 20 20 20 20 20 20 19 19 18 18 18 18 17 17 17 17 16 16 16 16 15 15 15 15 15 15 15 15 14 14 14 14 13 13 13 13 13 13 13 13 13 13
19 19 18 18 18 18 18 18 17 17 17 17 17 17 16 16 16 16 15 15 15 15 15 14 14 14 14 14 14 14 14 14 13 13 13 13 13 13 13 13 13 12 12
18 18 17 17 17 17 17 17 16 16 16 16 16 16 15 15 15 15 15 14 14 14 14 14 14 14 14 13 13 13 13 13 12 12 12 12 12 12 12 12 12 12 12
16 16 16 16 15 15 16 15 15 15 15 15 15 15 15 14 14 14 14 14 13 13 13 13 13 13 13 13 13 13 12 12 12 11 11 11 11 11 12 12 12 12 12
15 15 15 14 14 14 14 14 14 14 14 14 14 14 14 14 13 13 13 13 13 13 13 13 13 13 13 13 12 12 12 11 11 11 11 11 11 11 11 11 11 11 11
15 14 14 14 14 13 13 13 13 13 13 13 13 13 13 13 13 13 13 13 13 13 13 13 12 12 12 12 12 11 11 11 11 10 10 10 10 10 10 10 11 11 11
Wind_Speed
8 8 9 10 12 11 11 10 10 9 8 6 6 5 5 4 4 5 8 7 6 6 3 4 3 2 3 3 2 2 2 1 1 3 4 4 5 4 3 1 0 1 1
9 10 10 11 12 12 12 11 11 10 9 7 5 5 5 4 5 5 6 7 6 5 5 4 2 3 3 3 2 2 2 3 2 2 4 2 1 1 3 3 3 1 1
11 11 11 11 12 13 13 12 11 11 9 9 6 5 4 3 5 7 5 5 6 5 4 4 2 2 2 3 1 1 2 3 3 2 2 3 3 2 1 1 2 2 0
13 13 13 12 13 13 12 12 11 10 9 8 7 8 7 6 7 6 6 5 5 5 5 4 3 1 1 3 1 3 2 2 3 1 1 1 2 2 2 2 1 2 2
13 13 14 13 14 14 13 12 12 10 9 8 8 8 6 6 6 6 7 6 5 4 5 5 4 2 1 3 2 2 2 2 3 3 2 2 0 2 2 2 2 2 1
13 13 13 12 12 13 13 13 12 11 10 9 8 7 6 6 8 8 8 6 5 5 5 6 4 2 1 2 2 1 1 0 2 3 3 2 2 2 2 3 3 3 2
13 13 13 14 13 14 14 13 13 11 10 9 8 7 6 6 8 7 7 6 6 6 5 5 4 2 2 2 2 2 1 0 0 2 3 3 3 2 2 3 4 4 3
13 14 14 14 14 14 14 13 13 12 11 9 8 7 7 6 6 6 5 5 3 6 8 6 5 4 3 3 3 2 3 2 1 2 1 3 3 2 2 2 3 4 4
15 15 15 15 15 14 14 14 13 11 10 10 8 7 7 6 6 6 4 4 3 6 8 6 6 4 3 2 2 2 1 2 2 2 2 2 3 2 2 2 2 3 4
15 15 15 16 15 14 13 13 13 11 10 11 10 10 8 7 6 7 6 4 5 5 7 6 6 5 5 4 3 3 3 3 2 3 2 2 3 2 2 2 2 3 3
15 15 14 15 15 15 15 13 13 12 11 11 10 9 9 8 7 6 7 6 5 6 6 6 6 5 5 5 4 4 3 4 4 4 3 3 3 3 3 3 3 3 3
15 15 15 14 14 15 15 14 14 14 12 11 10 9 9 9 8 8 7 7 7 7 7 6 6 6 6 6 5 6 4 4 4 5 4 4 4 4 4 3 4 4 4
14 15 14 14 14 14 14 15 15 15 14 13 12 11 10 10 9 8 8 8 8 7 7 7 7 6 6 6 6 6 5 5 5 5 5 5 5 5 4 4 5 4 6
12 13 13 12 12 11 12 14 14 14 14 13 13 12 11 11 10 9 9 9 9 8 8 8 7 7 7 6 7 7 7 6 6 6 6 6 6 6 6 6 6 6 5
11 11 12 12 11 11 11 12 12 12 13 13 13 12 11 10 10 9 9 9 9 11 9 8 8 8 8 8 8 7 8 7 7 7 7 7 8 8 7 7 5 5 5
9 9 9 10 11 11 11 11 11 11 11 12 12 11 11 11 11 10 9 9 9 9 9 9 8 9 9 10 10 7 5 5 6 7 7 7 8 11 14 14 12 10 8
5 6 7 8 9 10 9 10 10 10 10 9 9 10 11 11 10 11 10 9 9 8 8 8 8 8 7 8 9 9 6 6 6 7 7 9 10 7 7 11 15 15 17
3 2 3 4 7 8 10 9 9 9 9 9 8 8 9 10 9 9 9 9 8 8 7 7 7 7 8 10 10 10 7 7 8 9 9 9 9 11 9 8 9 9 11
3 3 2 1 2 5 7 8 9 8 8 8 8 8 8 8 8 8 8 7 6 7 7 7 7 7 7 9 10 9 6 7 9 10 10 10 10 13 13 10 10 10 10
4 4 3 3 4 3 4 5 6 5 5 4 4 4 5 5 6 6 5 5 4 5 6 7 7 7 7 9 12 11 6 7 8 8 9 13 14 14 12 9 10 11 11
8 7 8 7 7 6 6 6 5 4 4 4 3 2 3 4 4 4 3 3 4 5 6 6 6 6 7 9 12 12 7 7 7 8 7 6 7 9 10 10 10 13 12
10 10 9 10 9 9 8 9 7 6 5 6 6 5 4 2 2 3 2 2 2 4 4 4 5 4 5 5 8 12 12 10 7 8 8 7 7 8 10 11 14 16 13
11 10 11 11 10 10 9 9 8 7 7 7 6 5 4 3 2 2 2 2 3 3 3 3 4 4 3 2 4 7 10 12 9 8 11 12 14 14 12 16 18 14 10
11 11 11 11 11 10 10 9 7 7 7 6 5 4 3 2 1 1 1 1 2 2 2 3 3 3 2 1 0 1 4 7 8 8 10 12 15 14 15 15 13 11 12
11 10 10 10 10 9 9 8 6 5 5 4 3 2 2 1 0 0 1 1 0 0 2 2 2 3 3 1 1 2 3 4 4 5 7 9 9 9 10 10 10 10 10
10 10 9 9 8 8 7 7 6 5 5 3 2 1 1 0 1 2 2 3 3 5 5 5 4 3 4 5 6 7 8 9 7 5 8 10 11 11 11 10 10 9 9
Wind_Direction
166 162 163 166 159 159 157 152 152 151 147 151 160 156 148 150 145 143 144 156 154 135 128 117 134 118 104 86 58 9 319 292 356 309 287 242 205 175 175 191 297 288 248
162 158 165 167 159 158 157 151 152 156 158 161 161 160 147 161 154 137 143 154 144 148 149 121 143 106 119 108 80 40 338 337 23 323 321 310 85 316 176 162 197 182 348
166 165 167 163 158 160 160 160 159 161 161 158 157 149 141 159 146 140 151 160 155 160 121 134 119 123 149 125 116 50 9 356 328 16 355 349 26 325 112 142 106 104 236
167 167 168 163 162 163 162 153 156 158 158 162 162 162 172 171 156 153 153 159 165 164 149 143 130 103 77 111 155 84 353 337 322 353 40 42 53 339 341 314 92 185 205
168 168 167 165 164 164 161 156 156 159 163 172 172 177 177 168 150 145 142 161 166 171 159 145 133 129 100 105 86 74 359 340 350 349 355 11 328 253 276 315 326 294 242
164 163 163 162 163 162 160 159 160 162 167 171 170 181 182 160 145 148 157 180 169 176 162 148 138 161 144 115 116 101 210 345 14 347 336 338 338 335 334 320 310 306 294
165 165 165 167 166 164 162 161 162 163 167 168 168 173 168 150 148 163 171 194 173 164 159 150 146 163 136 143 142 175 246 217 35 307 308 338 337 335 339 330 325 323 299
165 167 166 166 169 167 163 160 162 165 168 165 162 162 163 173 174 191 178 191 184 152 147 141 156 161 166 178 157 220 197 167 193 261 307 313 306 325 336 324 327 317 313
166 168 168 169 171 170 166 163 163 166 168 164 160 167 180 197 171 168 194 170 149 144 144 153 161 165 169 165 158 232 210 150 210 254 228 253 287 285 302 311 314 310 313
168 171 172 174 173 171 166 163 165 171 170 167 174 179 186 184 170 174 183 160 147 133 145 157 163 170 170 176 199 235 196 199 217 235 236 258 291 309 291 279 286 285 290
172 172 173 174 172 172 171 170 168 172 174 176 185 174 177 181 181 184 174 164 159 152 162 168 174 182 183 182 196 243 209 209 225 244 230 225 256 287 303 295 278 271 276
172 173 174 173 174 176 175 174 175 180 181 181 181 179 180 181 184 186 177 170 171 170 175 180 188 199 195 190 199 229 231 221 226 236 241 245 249 234 256 279 286 282 272
171 173 173 174 176 178 177 177 181 184 184 184 185 184 184 185 191 186 177 175 176 183 186 188 198 210 210 199 204 218 235 236 237 238 238 241 249 253 249 257 267 278 284
170 172 170 171 174 177 177 178 184 184 184 184 186 186 188 189 190 189 184 184 185 191 196 195 204 211 218 215 211 214 223 230 237 241 242 242 241 243 242 253 249 255 267
169 171 170 171 174 176 177 180 184 183 184 182 187 187 187 189 190 191 191 190 193 200 199 201 205 212 218 221 215 218 225 222 232 240 242 246 244 239 238 254 258 271 271
170 170 169 168 173 178 180 183 185 184 182 184 189 187 187 191 193 192 193 195 198 205 199 204 209 216 226 215 206 208 238 239 239 244 245 251 244 236 232 237 242 243 251
163 168 171 170 176 177 182 187 185 181 181 187 189 186 188 193 196 198 195 197 200 204 207 209 214 223 221 202 198 206 223 248 253 253 252 259 262 251 237 234 236 242 243
118 114 165 171 175 178 181 182 183 181 183 186 191 190 191 195 194 199 196 195 199 202 206 211 220 226 226 206 206 210 225 245 253 254 252 252 259 263 259 260 254 242 240
81 86 85 152 165 174 178 174 177 179 186 189 191 192 191 193 192 196 198 194 197 203 208 214 218 221 225 207 208 207 232 246 253 255 257 254 254 252 248 250 255 259 260
67 79 83 68 66 66 120 150 160 157 162 171 177 183 175 178 184 186 190 192 194 212 217 221 221 222 226 213 210 208 234 252 260 261 259 257 255 255 249 247 253 258 259
66 69 69 65 56 52 71 92 92 97 110 109 113 122 145 157 172 169 175 189 204 216 221 229 229 230 231 216 209 206 222 247 262 269 271 272 271 262 257 248 252 256 262
74 75 72 66 59 61 69 73 66 64 76 84 83 78 78 103 161 146 156 176 228 236 236 242 250 250 241 226 218 213 221 244 264 273 281 289 306 300 280 267 260 260 262
67 69 73 68 60 57 61 66 56 57 67 76 83 84 92 89 68 124 175 200 223 238 244 250 258 263 261 233 212 218 235 248 256 272 283 293 294 292 280 263 259 259 258
64 65 69 67 60 55 58 57 52 54 62 66 70 74 76 84 73 109 172 216 227 237 256 268 264 271 287 324 47 270 267 264 262 272 285 285 276 271 265 267 262 250 245
68 68 69 69 64 58 54 53 51 55 61 64 69 75 66 22 37 145 252 223 162 165 244 279 298 300 295 288 262 272 291 298 305 310 293 287 283 275 269 265 260 253 246
76 73 70 68 66 62 54 43 37 39 43 43 34 30 90 308 261 233 242 232 218 200 211 227 241 260 240 247 257 260 264 270 277 286 281 281 280 279 279 278 274 267 259
Height
1490 1493 1495 1498 1502 1505 1510 1513 1517 1521 1525 1529 1533 1536 1539 1542 1544 1546 1547 1549 1551 1553 1554 1555 1556 1557 1557 1558 1558 1559 1559 1560 1560 1560 1560 1560 1560 1561 1561 1562 1563 1564 1564
1489 1491 1495 1497 1500 1504 1508 1512 1516 1520 1524 1528 1532 1535 1538 1540 1543 1545 1546 1549 1551 1552 1554 1554 1555 1556 1556 1557 1557 1557 1558 1559 1560 1560 1559 1559 1560 1560 1561 1561 1562 1562 1563
1487 1491 1494 1497 1500 1504 1507 1512 1515 1520 1523 1527 1531 1534 1537 1540 1542 1544 1546 1548 1550 1551 1552 1553 1554 1555 1556 1556 1556 1556 1557 1558 1559 1559 1560 1559 1559 1560 1561 1561 1561 1561 1562
1486 1489 1493 1497 1500 1503 1507 1511 1515 1519 1522 1526 1529 1532 1535 1538 1541 1543 1544 1547 1549 1550 1551 1552 1553 1554 1555 1555 1555 1555 1557 1557 1558 1559 1559 1560 1559 1560 1560 1561 1560 1560 1560
1484 1487 1491 1495 1499 1503 1506 1510 1514 1517 1520 1524 1528 1531 1535 1537 1540 1542 1544 1545 1547 1548 1549 1550 1551 1552 1553 1553 1554 1554 1555 1556 1557 1557 1558 1558 1559 1559 1560 1560 1560 1559 1559
1482 1486 1490 1494 1498 1502 1505 1509 1512 1516 1520 1523 1527 1530 1533 1536 1538 1540 1542 1544 1545 1546 1548 1549 1550 1551 1551 1552 1552 1553 1554 1555 1555 1556 1557 1558 1558 1558 1558 1558 1558 1558 1558
1480 1485 1489 1493 1497 1501 1504 1507 1510 1514 1518 1522 1525 1528 1531 1533 1536 1538 1540 1542 1544 1544 1546 1547 1548 1549 1550 1550 1551 1552 1553 1553 1554 1554 1555 1556 1557 1557 1557 1557 1557 1556 1556
1478 1483 1487 1491 1495 1499 1503 1506 1508 1512 1517 1520 1523 1526 1529 1532 1534 1537 1539 1540 1542 1543 1544 1545 1546 1547 1548 1549 1550 1551 1552 1552 1552 1553 1554 1554 1555 1555 1556 1556 1556 1555 1554
1476 1481 1485 1490 1494 1498 1501 1505 1508 1511 1515 1518 1521 1524 1527 1530 1533 1535 1537 1539 1540 1541 1542 1543 1544 1545 1546 1547 1548 1549 1550 1551 1551 1552 1552 1552 1553 1554 1554 1554 1554 1554 1553
1475 1479 1484 1488 1492 1496 1500 1504 1507 1510 1513 1516 1519 1522 1525 1527 1530 1532 1534 1536 1538 1539 1540 1541 1542 1543 1544 1545 1546 1547 1548 1549 1549 1550 1550 1550 1551 1551 1551 1552 1552 1551 1551
1472 1477 1482 1486 1491 1495 1498 1502 1505 1508 1511 1515 1517 1520 1522 1525 1527 1529 1532 1533 1535 1536 1538 1539 1540 1542 1543 1544 1544 1545 1547 1547 1547 1548 1548 1548 1548 1548 1548 1549 1549 1548 1548
1469 1474 1479 1484 1488 1492 1496 1499 1502 1506 1509 1512 1515 1517 1520 1522 1524 1527 1529 1530 1532 1533 1535 1536 1538 1539 1541 1542 1542 1543 1544 1545 1545 1545 1546 1546 1546 1546 1545 1545 1545 1545 1545
1467 1472 1477 1481 1485 1489 1493 1496 1500 1503 1506 1509 1512 1514 1517 1519 1522 1524 1526 1527 1529 1531 1532 1533 1535 1536 1538 1539 1540 1541 1542 1542 1542 1543 1543 1543 1543 1542 1542 1542 1541 1541 1541
1465 1469 1474 1478 1483 1487 1490 1493 1497 1500 1503 1506 1508 1510 1513 1515 1518 1521 1522 1524 1526 1528 1529 1530 1532 1533 1535 1536 1537 1538 1538 1539 1539 1539 1539 1539 1539 1538 1538 1538 1537 1537 1536
1463 1467 1471 1475 1479 1483 1487 1490 1493 1497 1500 1502 1505 1507 1509 1512 1514 1516 1519 1521 1522 1524 1526 1527 1529 1530 1531 1532 1533 1534 1535 1535 1535 1535 1535 1535 1535 1534 1534 1534 1533 1533 1532
1461 1465 1469 1472 1476 1479 1483 1487 1490 1493 1496 1498 1501 1504 1506 1508 1510 1512 1514 1517 1518 1520 1522 1523 1525 1526 1528 1529 1530 1531 1531 1532 1531 1531 1531 1531 1530 1530 1529 1529 1528 1528 1527
1460 1464 1467 1470 1472 1476 1479 1482 1486 1489 1492 1494 1497 1500 1502 1504 1506 1509 1510 1512 1514 1516 1517 1519 1521 1522 1524 1525 1526 1526 1527 1527 1526 1526 1526 1525 1526 1525 1524 1523 1522 1522 1521
1460 1462 1465 1468 1470 1473 1475 1478 1482 1485 1488 1490 1493 1496 1498 1499 1502 1504 1506 1507 1509 1510 1512 1514 1516 1517 1519 1520 1521 1522 1522 1521 1521 1520 1520 1520 1519 1519 1519 1518 1517 1515 1514
1460 1462 1464 1465 1467 1469 1472 1474 1478 1481 1484 1486 1489 1492 1494 1496 1498 1499 1501 1503 1505 1505 1507 1509 1511 1512 1514 1515 1516 1517 1516 1515 1515 1515 1515 1514 1513 1513 1512 1511 1510 1508 1507
1460 1461 1463 1464 1465 1466 1468 1471 1474 1477 1480 1482 1485 1487 1490 1492 1494 1496 1498 1499 1501 1502 1502 1503 1506 1507 1508 1509 1510 1511 1510 1510 1509 1509 1509 1508 1507 1507 1505 1504 1502 1500 1499
1461 1462 1463 1464 1464 1466 1467 1469 1472 1474 1476 1479 1481 1483 1484 1488 1491 1492 1494 1496 1497 1498 1499 1500 1501 1502 1503 1503 1504 1504 1504 1504 1503 1502 1502 1502 1501 1499 1498 1497 1495 1493 1492
1463 1463 1464 1465 1466 1466 1468 1469 1471 1473 1475 1477 1479 1480 1482 1485 1487 1489 1490 1492 1493 1494 1495 1495 1496 1497 1498 1498 1498 1498 1498 1498 1497 1495 1495 1494 1493 1492 1490 1488 1487 1485 1484
1465 1466 1467 1467 1468 1469 1470 1471 1472 1474 1476 1477 1478 1480 1481 1482 1484 1486 1487 1489 1490 1491 1491 1491 1492 1493 1493 1493 1493 1492 1492 1491 1490 1488 1487 1486 1485 1483 1481 1480 1478 1477 1474
1468 1469 1470 1470 1471 1472 1472 1473 1474 1474 1475 1477 1478 1479 1481 1482 1483 1484 1485 1486 1487 1487 1488 1488 1488 1488 1489 1488 1487 1486 1486 1485 1483 1481 1479 1478 1476 1474 1472 1470 1468 1466 1465
1472 1472 1473 1474 1475 1475 1475 1475 1476 1476 1477 1477 1479 1480 1481 1481 1482 1482 1483 1483 1484 1484 1484 1484 1484 1484 1484 1483 1482 1481 1480 1478 1477 1474 1472 1470 1468 1465 1463 1461 1460 1458 1457
1475 1476 1477 1478 1478 1478 1478 1479 1478 1478 1478 1479 1480 1480 1481 1481 1481 1480 1480 1480 1481 1481 1481 1481 1481 1480 1480 1478 1477 1476 1474 1473 1471 1468 1465 1463 1461 1458 1456 1454 1452 1451 1449